Weather History for East Milton, MA

Change the Weather History Date:

Thursday, February 21, 2013

  Actual Average (KBOS) Record (KBOS)
Temperature  
Mean Temperature 26 °F 33 °F  
Max Temperature 30 °F 40 °F 63 °F (1906)
Min Temperature 21 °F 26 °F -1 °F (1950)
Degree Days  
Heating Degree Days 40 32  
Month to date heating degree days 711  
Since 1 July heating degree days 3821  
Cooling Degree Days 0 0  
Month to date cooling degree days 0  
Year to date cooling degree days 0  
Moisture  
Dew Point 11 °F    
Average Humidity 55    
Maximum Humidity 65    
Minimum Humidity 44    
Precipitation  
Precipitation 0.00 in 0.12 in 2.45 in (1898)
Month to date precipitation 2.37  
Year to date precipitation 5.73  
Sea Level Pressure  
Sea Level Pressure 29.89 in    
Wind  
Wind Speed 17 mph (WNW)    
Max Wind Speed 25 mph    
Max Gust Speed 40 mph    
T = Trace of Precipitation, MM = Missing Value Source: NWS Daily Summary

Daily Weather History Graph

Daily Weather History Graph

Search for Another Location

Airport:

Trip Planner

Search our weather history database for the weather conditions in past years. The results will help you decide how hot, cold, wet, or windy it might be!

Date:

Astronomy

Feb. 21, 2013 Rise Set
Actual Time 6:31 AM EST 5:24 PM EST
Civil Twilight 6:03 AM EST 5:53 PM EST
Nautical Twilight 5:30 AM EST 6:25 PM EST
Astronomical Twilight 4:58 AM EST 6:58 PM EST
Moon 1:34 PM EST (2/21) 3:37 AM EST (2/21)
Length of Visible Light 11h 49m
Length of Day
10h 53m
Waxing Gibbous, 83% of the Moon is Illuminated
Feb 21
Waxing Gibbous
Feb 25
Full
Mar 4
Last Quarter
Mar 11
New
Mar 19
First Quarter

Hourly Weather History & Observations

Time (EST) Temp. Windchill Dew Point Humidity Pressure Visibility Wind Dir Wind Speed Gust Speed Precip Events Conditions
12:54 AM 24.1 °F 12.5 °F 12.0 °F 60% 29.80 in - West 12.7 mph 24.2 mph N/A   Unknown
1:54 AM 24.1 °F 10.6 °F 12.9 °F 62% 29.80 in - West 17.3 mph 25.3 mph N/A   Unknown
2:54 AM 24.1 °F 11.5 °F 12.9 °F 62% 29.80 in - West 15.0 mph 25.3 mph N/A   Unknown
3:54 AM 24.1 °F 13.7 °F 12.0 °F 60% 29.80 in - West 10.4 mph 19.6 mph N/A   Unknown
4:54 AM 23.0 °F 9.6 °F 10.9 °F 60% 29.80 in - West 16.1 mph 21.9 mph N/A   Unknown
5:54 AM 23.0 °F 8.7 °F 10.9 °F 60% 29.81 in - West 18.4 mph 29.9 mph N/A   Unknown
6:54 AM 21.9 °F 6.9 °F 10.0 °F 60% 29.82 in - West 19.6 mph 32.2 mph N/A   Unknown
7:54 AM 23.0 °F 8.7 °F 9.0 °F 55% 29.83 in - West 18.4 mph 32.2 mph N/A   Unknown
8:54 AM 24.1 °F 9.4 °F 9.0 °F 53% 29.81 in - WNW 20.7 mph 31.1 mph N/A   Unknown
9:54 AM 26.1 °F 12.0 °F 9.0 °F 49% 29.81 in - WNW 20.7 mph 34.5 mph N/A   Unknown
10:54 AM 27.0 °F 13.5 °F 9.0 °F 47% 29.82 in - WNW 19.6 mph 34.5 mph N/A   Unknown
11:54 AM 28.9 °F 16.5 °F 10.9 °F 47% 29.81 in - West 18.4 mph 27.6 mph N/A   Unknown
12:54 PM 28.9 °F 14.8 °F 10.0 °F 45% 29.81 in - WNW 24.2 mph 35.7 mph N/A   Unknown
1:54 PM 30.0 °F 17.2 °F 12.0 °F 47% 29.81 in - NW 20.7 mph 33.4 mph N/A   Unknown
2:54 PM 30.2 °F 16.2 °F 10.4 °F 44% 29.77 in - NW 25.3 mph 40.3 mph N/A   Unknown
3:54 PM 30.0 °F 17.2 °F 10.9 °F 45% 29.86 in - NW 20.7 mph 33.4 mph N/A   Unknown
4:54 PM 28.0 °F 14.9 °F 10.9 °F 49% 29.91 in - NW 19.6 mph 32.2 mph N/A   Unknown
5:54 PM 26.1 °F 12.7 °F 10.9 °F 53% 29.96 in - NW 18.4 mph 32.2 mph N/A   Unknown
6:54 PM 26.1 °F 14.5 °F 12.0 °F 55% 30.01 in - NW 13.8 mph 24.2 mph N/A   Unknown
7:54 PM 24.1 °F 11.0 °F 10.9 °F 57% 30.04 in - NNW 16.1 mph 29.9 mph N/A   Unknown
8:54 PM 24.1 °F 10.6 °F 12.0 °F 60% 30.08 in - NNW 17.3 mph 25.3 mph N/A   Unknown
9:54 PM 24.1 °F 11.0 °F 12.9 °F 62% 30.10 in - NNW 16.1 mph 23.0 mph N/A   Unknown
10:54 PM 23.0 °F 8.7 °F 12.9 °F 65% 30.14 in - NW 18.4 mph 24.2 mph N/A   Unknown
11:54 PM 23.0 °F 11.1 °F 12.9 °F 65% 30.18 in - NW 12.7 mph 23.0 mph N/A   Unknown